TimeEDT,TemperatureF,Dew PointF,Humidity,Sea Level PressureIn,VisibilityMPH,Wind Direction,Wind SpeedMPH,Gust SpeedMPH,PrecipitationIn,Events,Conditions,WindDirDegrees,DateUTC
12:15 AM,62.6,44.6,52,29.94,10.0,SW,15.0,24.2,N/A,,Unknown,220,2011-10-27 04:15:00
12:35 AM,60.8,42.8,52,29.94,10.0,SW,17.3,23.0,N/A,,Unknown,220,2011-10-27 04:35:00
12:55 AM,60.8,42.8,52,29.94,10.0,SW,15.0,24.2,N/A,,Unknown,230,2011-10-27 04:55:00
1:15 AM,60.8,42.8,52,29.94,10.0,SW,12.7,-,N/A,,Unknown,230,2011-10-27 05:15:00
1:35 AM,60.8,42.8,52,29.93,10.0,SW,15.0,18.4,N/A,,Unknown,220,2011-10-27 05:35:00
1:55 AM,60.8,42.8,52,29.93,10.0,SW,13.8,21.9,N/A,,Unknown,220,2011-10-27 05:55:00
2:15 AM,60.8,42.8,52,29.92,10.0,SW,13.8,25.3,N/A,,Unknown,220,2011-10-27 06:15:00
2:35 AM,59.0,42.8,55,29.92,10.0,SW,12.7,18.4,N/A,,Unknown,230,2011-10-27 06:35:00
2:55 AM,60.8,41.0,48,29.91,10.0,SW,17.3,-,N/A,,Unknown,230,2011-10-27 06:55:00
3:15 AM,60.8,41.0,48,29.91,10.0,SW,15.0,-,N/A,,Unknown,220,2011-10-27 07:15:00
3:35 AM,60.8,41.0,48,29.91,10.0,WSW,15.0,25.3,N/A,,Unknown,240,2011-10-27 07:35:00
3:55 AM,59.0,42.8,55,29.90,10.0,SW,15.0,25.3,N/A,,Unknown,220,2011-10-27 07:55:00
4:15 AM,59.0,41.0,51,29.89,10.0,SW,12.7,-,N/A,,Unknown,220,2011-10-27 08:15:00
4:35 AM,59.0,41.0,51,29.89,10.0,SW,16.1,20.7,N/A,,Unknown,220,2011-10-27 08:35:00
4:55 AM,59.0,41.0,51,29.89,10.0,SW,11.5,25.3,N/A,,Unknown,220,2011-10-27 08:55:00
5:15 AM,57.2,42.8,59,29.89,10.0,SW,13.8,17.3,N/A,,Unknown,230,2011-10-27 09:15:00
5:35 AM,57.2,42.8,59,29.89,10.0,SW,9.2,19.6,N/A,,Unknown,230,2011-10-27 09:35:00
5:55 AM,57.2,42.8,59,29.89,10.0,SW,12.7,20.7,N/A,,Unknown,220,2011-10-27 09:55:00
6:15 AM,57.2,42.8,59,29.88,10.0,SW,13.8,-,N/A,,Unknown,220,2011-10-27 10:15:00
6:35 AM,59.0,42.8,55,29.88,10.0,SW,15.0,20.7,N/A,,Unknown,220,2011-10-27 10:35:00
6:55 AM,57.2,42.8,59,29.87,10.0,SW,16.1,23.0,N/A,,Unknown,220,2011-10-27 10:55:00
7:15 AM,57.2,42.8,59,29.87,10.0,SW,12.7,-,N/A,,Unknown,230,2011-10-27 11:15:00
7:35 AM,57.2,42.8,59,29.87,10.0,SW,15.0,21.9,N/A,,Unknown,230,2011-10-27 11:35:00
7:55 AM,57.2,42.8,59,29.88,10.0,SW,16.1,27.6,N/A,,Unknown,230,2011-10-27 11:55:00
8:15 AM,57.2,42.8,59,29.89,7.0,SW,16.1,-,N/A,,Unknown,230,2011-10-27 12:15:00
8:35 AM,55.4,44.6,67,29.89,10.0,WSW,11.5,-,N/A,,Unknown,240,2011-10-27 12:35:00
8:55 AM,55.4,44.6,67,29.89,7.0,SW,11.5,17.3,N/A,,Unknown,230,2011-10-27 12:55:00
9:15 AM,55.4,46.4,72,29.90,10.0,SW,8.1,12.7,N/A,,Unknown,230,2011-10-27 13:15:00
9:35 AM,55.4,46.4,72,29.90,5.0,SW,10.4,-,N/A,,Unknown,220,2011-10-27 13:35:00
10:15 AM,55.4,46.4,72,29.91,10.0,SW,12.7,18.4,N/A,,Unknown,230,2011-10-27 14:15:00
10:35 AM,55.4,48.2,77,29.89,10.0,SW,15.0,18.4,N/A,,Unknown,220,2011-10-27 14:35:00
10:55 AM,57.2,48.2,72,29.87,10.0,SW,12.7,17.3,N/A,,Unknown,220,2011-10-27 14:55:00
11:15 AM,57.2,48.2,72,29.88,10.0,SW,11.5,-,N/A,,Unknown,230,2011-10-27 15:15:00
11:35 AM,57.2,50.0,77,29.88,5.0,SW,12.7,18.4,N/A,,Unknown,230,2011-10-27 15:35:00
12:15 PM,55.4,50.0,82,29.87,7.0,SSW,11.5,20.7,N/A,,Unknown,210,2011-10-27 16:15:00
12:35 PM,57.2,51.8,82,29.87,10.0,SW,12.7,18.4,N/A,,Unknown,220,2011-10-27 16:35:00
1:15 PM,59.0,51.8,77,29.87,10.0,SW,16.1,23.0,N/A,,Unknown,220,2011-10-27 17:15:00
1:35 PM,57.2,51.8,82,29.86,5.0,SW,12.7,-,N/A,,Unknown,230,2011-10-27 17:35:00
1:55 PM,55.4,50.0,82,29.86,5.0,SW,10.4,17.3,N/A,,Unknown,230,2011-10-27 17:55:00
2:15 PM,55.4,51.8,88,29.86,7.0,WSW,10.4,-,N/A,,Unknown,240,2011-10-27 18:15:00
2:35 PM,55.4,51.8,88,29.86,7.0,SW,9.2,-,N/A,,Unknown,230,2011-10-27 18:35:00
2:55 PM,55.4,51.8,88,29.87,3.0,WSW,8.1,-,N/A,,Unknown,240,2011-10-27 18:55:00
3:15 PM,55.4,51.8,88,29.88,1.5,WSW,5.8,-,N/A,,Unknown,250,2011-10-27 19:15:00
3:35 PM,55.4,53.6,94,29.88,1.5,West,6.9,-,N/A,,Unknown,260,2011-10-27 19:35:00
3:55 PM,53.6,51.8,94,29.89,4.0,NNW,9.2,16.1,N/A,,Unknown,330,2011-10-27 19:55:00
4:15 PM,51.8,50.0,94,29.90,10.0,NW,8.1,-,N/A,,Unknown,310,2011-10-27 20:15:00
4:35 PM,51.8,48.2,88,29.91,7.0,WNW,8.1,-,N/A,,Unknown,300,2011-10-27 20:35:00
4:55 PM,51.8,48.2,88,29.92,7.0,WNW,9.2,-,N/A,,Unknown,290,2011-10-27 20:55:00
5:15 PM,50.0,48.2,94,29.93,7.0,WNW,10.4,-,N/A,,Unknown,290,2011-10-27 21:15:00
5:35 PM,50.0,48.2,94,29.94,4.0,WNW,12.7,-,N/A,,Unknown,290,2011-10-27 21:35:00
5:55 PM,48.2,46.4,93,29.94,2.5,West,4.6,-,N/A,,Unknown,270,2011-10-27 21:55:00
6:15 PM,48.2,46.4,93,29.97,5.0,West,11.5,-,N/A,,Unknown,280,2011-10-27 22:15:00
6:35 PM,48.2,46.4,93,29.96,5.0,WNW,5.8,-,N/A,,Unknown,300,2011-10-27 22:35:00
6:55 PM,48.2,46.4,93,29.98,10.0,NW,9.2,-,N/A,,Unknown,320,2011-10-27 22:55:00
7:15 PM,48.2,46.4,93,29.98,10.0,WNW,10.4,-,N/A,,Unknown,300,2011-10-27 23:15:00
7:35 PM,48.2,46.4,93,29.99,1.8,NW,9.2,-,N/A,,Unknown,320,2011-10-27 23:35:00
7:55 PM,48.2,46.4,93,30.00,2.0,North,11.5,18.4,N/A,,Unknown,350,2011-10-27 23:55:00
8:15 PM,46.4,46.4,100,30.01,4.0,NNW,6.9,-,N/A,,Unknown,340,2011-10-28 00:15:00
8:35 PM,46.4,46.4,100,30.01,5.0,North,9.2,-,N/A,,Unknown,360,2011-10-28 00:35:00
9:15 PM,46.4,44.6,93,30.03,5.0,North,11.5,17.3,N/A,,Unknown,350,2011-10-28 01:15:00
9:35 PM,44.6,44.6,100,30.03,4.0,North,9.2,-,N/A,,Unknown,360,2011-10-28 01:35:00
10:15 PM,44.6,42.8,93,30.04,7.0,North,8.1,-,N/A,,Unknown,350,2011-10-28 02:15:00
10:35 PM,44.6,42.8,93,30.04,0.5,North,10.4,-,N/A,,Unknown,10,2011-10-28 02:35:00
10:55 PM,42.8,41.0,93,30.05,3.0,NNE,12.7,-,N/A,,Unknown,20,2011-10-28 02:55:00
11:15 PM,42.8,41.0,93,30.05,4.0,North,11.5,-,N/A,,Unknown,360,2011-10-28 03:15:00
11:35 PM,42.8,41.0,93,30.06,10.0,NNE,10.4,-,N/A,,Unknown,20,2011-10-28 03:35:00